Location: Fontevrault
(47.1823°N, 0.0493°E)
Time: 11:38:08
(UTC+00:00)

GP-B - Pass Details

Date: 16 June 2021
Orbit: 631 x 635 km, 89.8° (Epoch: 27 July)

Event Time Altitude Azimuth Distance (km) Brightness Sun altitude
Rises 23:29:09 0° 9° (N) 2,945 7.9 -19.1°
Reaches altitude 10° 23:31:34 10° 19° (NNE) 2,031 6.7 -19.1°
Maximum altitude 23:35:37 34° 84° (E) 1,058 4.2 -19.2°
Enters shadow 23:37:02 27° 121° (ESE) 1,215 4.2 -19.2°
